Cape Girardeau, MO

3:44 AM CST on December 18, 2017 (GMT -0600)
Cape Girardeau Regional

Weather History for KCGI - November, 2011

Change the Weather History Date:

Tuesday, November 22, 2011

  Actual Average Record
Temperature  
Mean Temperature 56 °F 44 °F  
Max Temperature 62 °F 54 °F 69 °F (1973)
Min Temperature 50 °F 34 °F 10 °F (1964)
Degree Days  
Heating Degree Days 9    
Month to date heating degree days 272  
Since 1 July heating degree days 559  
Cooling Degree Days 0    
Month to date cooling degree days 1  
Year to date cooling degree days 1698  
Growing Degree Days 6 (Base 50)    
Moisture  
Dew Point 50 °F    
Average Humidity 86    
Maximum Humidity 97    
Minimum Humidity 74    
Precipitation  
Precipitation 1.13 in 0.16 in 2.27 in (1961)
Month to date precipitation 7.49 3.19  
Year to date precipitation 66.48 41.31  
Sea Level Pressure  
Sea Level Pressure 29.90 in    
Wind  
Wind Speed 9 mph (NNW)    
Max Wind Speed 23 mph    
Max Gust Speed 29 mph    
Visibility 7 miles    
Events Rain , Thunderstorm    
T = Trace of Precipitation, MM = Missing Value Source: NWS Daily Summary

Daily Weather History Graph

Daily Weather History Graph

Search for Another Location

Airport or City:

Trip Planner

Search our weather history database for the weather conditions in past years. The results will help you decide how hot, cold, wet, or windy it might be!

Date:

Astronomy

Nov. 22, 2011 Rise Set
Actual Time 6:44 AM CST 4:44 PM CST
Civil Twilight 6:16 AM CST 5:12 PM CST
Nautical Twilight 5:44 AM CST 5:44 PM CST
Astronomical Twilight 5:13 AM CST 6:15 PM CST
Moon 3:37 AM CST (11/22) 2:41 PM CST (11/22)
Length of Visible Light 10h 56m
Length of Day
9h 59m
Waning Crescent, 9% of the Moon is Illuminated
Nov 22
Waning Crescent
Nov 25
New
Dec 2
First Quarter
Dec 10
Full
Dec 17
Last Quarter

Hourly Weather History & Observations

Time (CST) Temp. Dew Point Humidity Pressure Visibility Wind Dir Wind Speed Gust Speed Precip Events Conditions
12:07 AM 50.0 °F 48.2 °F 94% 30.04 in 2.5 mi NE 4.6 mph - 0.02 in Rain , Thunderstorm Rain
12:19 AM 50.0 °F 48.2 °F 94% 30.04 in 3.0 mi NE 4.6 mph - 0.04 in Rain Rain
12:53 AM 50.0 °F 48.0 °F 93% 30.01 in 1.8 mi NNE 5.8 mph - 0.19 in Rain Heavy Rain
1:01 AM 50.0 °F 48.2 °F 94% 30.01 in 3.0 mi North 5.8 mph - 0.02 in Rain Rain
1:33 AM 50.0 °F 48.2 °F 94% 30.03 in 2.5 mi Calm Calm - 0.14 in Rain Heavy Rain
1:53 AM 50.0 °F 48.0 °F 93% 30.01 in 3.0 mi NE 8.1 mph - 0.22 in Rain Rain
2:08 AM 50.0 °F 48.2 °F 94% 30.00 in 4.0 mi ENE 9.2 mph - 0.04 in Rain Rain
2:19 AM 50.0 °F 48.2 °F 94% 29.98 in 4.0 mi NE 9.2 mph - 0.06 in Rain Light Rain
2:53 AM 50.0 °F 48.9 °F 96% 29.99 in 2.0 mi Calm Calm - 0.19 in Rain Heavy Rain
3:00 AM 50.0 °F 48.2 °F 94% 29.98 in 1.2 mi North 8.1 mph - 0.10 in Rain Heavy Rain
3:28 AM 50.0 °F 48.2 °F 94% 29.99 in 2.5 mi WNW 5.8 mph - 0.30 in Rain Rain
3:36 AM 50.0 °F 48.2 °F 94% 29.98 in 4.0 mi West 5.8 mph - 0.31 in Rain Rain
3:47 AM 50.0 °F 48.2 °F 94% 29.97 in 4.0 mi NE 4.6 mph - 0.33 in Rain Rain
3:53 AM 50.0 °F 48.0 °F 93% 29.96 in 4.0 mi ENE 5.8 mph - 0.34 in Rain Rain
4:22 AM 51.8 °F 48.2 °F 88% 29.92 in 5.0 mi ENE 6.9 mph - 0.03 in Rain Light Rain
4:53 AM 51.1 °F 48.9 °F 92% 29.86 in 6.0 mi NE 12.7 mph - 0.06 in Rain Light Rain
5:26 AM 51.8 °F 48.2 °F 88% 29.82 in 4.0 mi ENE 12.7 mph - 0.05 in Rain Rain
5:53 AM 51.8 °F 48.2 °F 88% 29.81 in 4.0 mi ESE 8.1 mph - N/A Rain Rain
6:00 AM 51.8 °F 50.0 °F 94% 29.80 in 7.0 mi East 9.2 mph - N/A Rain Light Rain
6:09 AM 51.8 °F 50.0 °F 94% 29.79 in 10.0 mi East 8.1 mph - 0.00 in   Overcast
6:53 AM 55.4 °F 53.6 °F 94% 29.79 in 10.0 mi ESE 8.1 mph - N/A   Overcast
7:36 AM 55.4 °F 53.6 °F 94% 29.78 in 10.0 mi ENE 3.5 mph - N/A   Overcast
7:53 AM 55.9 °F 54.0 °F 93% 29.77 in 9.0 mi ESE 3.5 mph - N/A   Overcast
8:07 AM 57.2 °F 55.4 °F 94% 29.77 in 2.0 mi SE 9.2 mph - 0.01 in Rain Light Rain
8:10 AM 57.2 °F 55.4 °F 94% 29.77 in 1.5 mi SSE 10.4 mph - 0.01 in Rain Light Rain
8:45 AM 60.8 °F 57.2 °F 88% 29.77 in 2.0 mi South 11.5 mph - 0.04 in Rain Light Rain
8:50 AM 60.8 °F 59.0 °F 94% 29.77 in 4.0 mi South 13.8 mph - 0.04 in Rain Light Rain
8:53 AM 61.0 °F 59.0 °F 93% 29.77 in 5.0 mi SSW 15.0 mph - 0.04 in   Overcast
9:33 AM 62.6 °F 59.0 °F 88% 29.78 in 10.0 mi SW 19.6 mph 26.5 mph 0.00 in   Overcast
9:53 AM 61.0 °F 57.9 °F 90% 29.78 in 10.0 mi WSW 19.6 mph - 0.00 in   Overcast
10:02 AM 60.8 °F 57.2 °F 88% 29.79 in 10.0 mi WSW 18.4 mph 27.6 mph N/A   Overcast
10:14 AM 60.8 °F 57.2 °F 88% 29.79 in 10.0 mi WSW 20.7 mph - N/A   Overcast
10:35 AM 59.0 °F 55.4 °F 88% 29.80 in 10.0 mi WSW 17.3 mph 26.5 mph N/A   Overcast
10:53 AM 57.9 °F 55.0 °F 90% 29.80 in 10.0 mi WSW 15.0 mph - N/A   Overcast
11:27 AM 55.4 °F 53.6 °F 94% 29.82 in 10.0 mi NW 11.5 mph - N/A   Overcast
11:40 AM 53.6 °F 51.8 °F 94% 29.83 in 10.0 mi NW 12.7 mph - N/A   Overcast
11:53 AM 54.0 °F 50.0 °F 86% 29.82 in 10.0 mi WNW 11.5 mph - N/A   Overcast
12:53 PM 54.0 °F 48.9 °F 83% 29.83 in 10.0 mi West 11.5 mph - N/A   Overcast
1:26 PM 53.6 °F 48.2 °F 82% 29.83 in 10.0 mi WNW 9.2 mph - N/A   Overcast
1:53 PM 55.0 °F 48.9 °F 80% 29.83 in 10.0 mi WNW 9.2 mph - N/A   Overcast
2:53 PM 54.0 °F 48.0 °F 80% 29.84 in 10.0 mi WNW 8.1 mph - N/A   Overcast
3:53 PM 53.1 °F 46.9 °F 80% 29.87 in 10.0 mi NW 8.1 mph - N/A   Overcast
4:36 PM 51.8 °F 48.2 °F 88% 29.91 in 8.0 mi NW 10.4 mph - N/A   Overcast
4:53 PM 51.1 °F 46.9 °F 86% 29.92 in 7.0 mi NW 10.4 mph - N/A   Overcast
5:15 PM 51.8 °F 46.4 °F 82% 29.93 in 10.0 mi NW 8.1 mph - N/A   Overcast
5:53 PM 51.1 °F 46.0 °F 83% 29.95 in 10.0 mi NW 9.2 mph - N/A   Overcast
6:53 PM 51.1 °F 46.9 °F 86% 29.97 in 10.0 mi NW 8.1 mph - 0.00 in   Overcast
7:53 PM 51.1 °F 46.0 °F 83% 30.00 in 10.0 mi NW 13.8 mph - N/A   Overcast
8:53 PM 50.0 °F 43.0 °F 77% 30.04 in 10.0 mi NW 11.5 mph - N/A   Overcast
9:53 PM 50.0 °F 44.1 °F 80% 30.06 in 10.0 mi NW 10.4 mph - N/A   Overcast
10:53 PM 50.0 °F 44.1 °F 80% 30.08 in 10.0 mi NW 8.1 mph - N/A   Overcast
11:53 PM 50.0 °F 44.1 °F 80% 30.09 in 10.0 mi NW 5.8 mph - N/A   Overcast